Tiempo cada hora Bartkowa Posadowa

Hoy, 4 Marzo, Jueves

Tiempo Temperatura Precipitaciones Viento Presión Humedad
00:00 +4°C° 0 mm 2 mps 734 mmHg 81%
01:00 +4°C° 0 mm 2 mps 734 mmHg 81%
02:00 +3°C° 0 mm 2 mps 733 mmHg 80%
03:00 +3°C° 0 mm 2 mps 732 mmHg 79%
04:00 +3°C° 0 mm 2 mps 732 mmHg 79%
05:00 +3°C° 0 mm 2 mps 732 mmHg 77%
06:00 +3°C° 0 mm 2 mps 731 mmHg 75%
07:00 +3°C° 0 mm 2 mps 731 mmHg 73%
08:00 +4°C° 0 mm 3 mps 731 mmHg 67%
09:00 +7°C° 0 mm 3 mps 731 mmHg 60%
10:00 +10°C° 0 mm 3 mps 731 mmHg 53%
11:00 +10°C° 0 mm 4 mps 730 mmHg 53%
12:00 +11°C° 0 mm 4 mps 730 mmHg 52%
13:00 +12°C° 0 mm 5 mps 730 mmHg 52%
14:00 +11°C° 0 mm 4 mps 729 mmHg 56%
15:00 +11°C° 0 mm 4 mps 729 mmHg 61%
16:00 +10°C° 0 mm 3 mps 729 mmHg 66%
17:00 +9°C° 0.1 mm 3 mps 728 mmHg 72%
18:00 +8°C° 0.1 mm 2 mps 728 mmHg 79%
19:00 +7°C° 0.1 mm 2 mps 727 mmHg 86%
20:00 +7°C° 0.7 mm 2 mps 727 mmHg 88%
21:00 +7°C° 0.7 mm 2 mps 727 mmHg 90%
22:00 +6°C° 0.7 mm 2 mps 727 mmHg 93%
23:00 +6°C° 1.6 mm 2 mps 727 mmHg 93%

Mañana, 5 Marzo, Viernes

Tiempo Temperatura Precipitaciones Viento Presión Humedad
00:00 +5°C° 1.6 mm 2 mps 727 mmHg 94%
01:00 +5°C° 1.6 mm 2 mps 727 mmHg 95%
02:00 +4°C° 0.9 mm 2 mps 727 mmHg 95%
03:00 +2°C° 0.9 mm 3 mps 727 mmHg 96%
04:00 +1°C° 0.9 mm 3 mps 727 mmHg 97%
05:00 0°C° 0.7 mm 3 mps 727 mmHg 97%
06:00 0°C° 0.7 mm 3 mps 727 mmHg 97%
07:00 -1°C° 0.7 mm 3 mps 728 mmHg 97%
08:00 -1°C° 0.5 mm 3 mps 728 mmHg 95%
09:00 -2°C° 0.5 mm 4 mps 729 mmHg 94%
10:00 -2°C° 0.5 mm 4 mps 730 mmHg 93%
11:00 -2°C° 0.3 mm 4 mps 730 mmHg 90%
12:00 -1°C° 0.3 mm 4 mps 731 mmHg 86%
13:00 -1°C° 0.3 mm 4 mps 731 mmHg 83%
14:00 -1°C° 0.1 mm 4 mps 731 mmHg 78%
15:00 -1°C° 0.1 mm 4 mps 732 mmHg 73%
16:00 -1°C° 0.1 mm 4 mps 732 mmHg 68%
17:00 -1°C° 0 mm 3 mps 733 mmHg 71%
18:00 -2°C° 0 mm 2 mps 734 mmHg 73%
19:00 -3°C° 0 mm 2 mps 734 mmHg 76%
20:00 -3°C° 0 mm 2 mps 735 mmHg 76%
21:00 -1°C° 0 mm 1 mps 735 mmHg 77%
22:00 -1°C° 0 mm 1 mps 736 mmHg 78%
23:00 -3°C° 0 mm 2 mps 736 mmHg 78%

Pasado mañana, 6 Marzo, Sábado

Tiempo Temperatura Precipitaciones Viento Presión Humedad
00:00 -4°C° 0 mm 2 mps 737 mmHg 79%
01:00 -4°C° 0 mm 2 mps 737 mmHg 79%
02:00 -3°C° 0 mm 2 mps 737 mmHg 80%
03:00 -3°C° 0 mm 2 mps 737 mmHg 80%
04:00 -4°C° 0 mm 3 mps 738 mmHg 81%
05:00 -4°C° 0 mm 3 mps 738 mmHg 81%
06:00 -5°C° 0 mm 3 mps 739 mmHg 82%
07:00 -5°C° 0 mm 3 mps 739 mmHg 82%
08:00 -4°C° 0 mm 3 mps 739 mmHg 75%
09:00 -2°C° 0 mm 3 mps 740 mmHg 69%
10:00 -1°C° 0 mm 3 mps 740 mmHg 62%
11:00 -1°C° 0 mm 3 mps 740 mmHg 58%
12:00 0°C° 0 mm 3 mps 740 mmHg 54%
13:00 0°C° 0 mm 3 mps 740 mmHg 50%
14:00 0°C° 0 mm 3 mps 740 mmHg 51%
15:00 0°C° 0 mm 3 mps 740 mmHg 52%
16:00 +1°C° 0 mm 2 mps 740 mmHg 52%
17:00 -1°C° 0 mm 2 mps 740 mmHg 57%
18:00 0°C° 0 mm 1 mps 740 mmHg 62%
19:00 -1°C° 0 mm 1 mps 740 mmHg 68%
20:00 -1°C° 0 mm 1 mps 740 mmHg 68%
21:00 -2°C° 0 mm 1 mps 740 mmHg 69%
22:00 -4°C° 0 mm 2 mps 740 mmHg 70%
23:00 -4°C° 0 mm 2 mps 739 mmHg 70%

7 Marzo, Domingo

Tiempo Temperatura Precipitaciones Viento Presión Humedad
00:00 -4°C° 0 mm 2 mps 739 mmHg 71%
01:00 -4°C° 0 mm 2 mps 738 mmHg 71%
02:00 -4°C° 0 mm 2 mps 738 mmHg 71%
03:00 -4°C° 0 mm 2 mps 737 mmHg 71%
04:00 -4°C° 0 mm 2 mps 737 mmHg 70%
05:00 -4°C° 0 mm 2 mps 737 mmHg 68%
06:00 -4°C° 0 mm 2 mps 736 mmHg 67%
07:00 -4°C° 0 mm 2 mps 736 mmHg 65%
08:00 -2°C° 0 mm 3 mps 736 mmHg 57%
09:00 0°C° 0 mm 3 mps 736 mmHg 49%
10:00 +2°C° 0 mm 3 mps 736 mmHg 41%
11:00 +3°C° 0 mm 3 mps 735 mmHg 39%
12:00 +3°C° 0 mm 3 mps 735 mmHg 38%
13:00 +4°C° 0 mm 3 mps 734 mmHg 37%
14:00 +4°C° 0 mm 3 mps 733 mmHg 42%
15:00 +3°C° 0 mm 3 mps 733 mmHg 47%
16:00 +4°C° 0 mm 2 mps 732 mmHg 52%
17:00 +2°C° 0 mm 2 mps 732 mmHg 58%
18:00 +1°C° 0 mm 2 mps 732 mmHg 63%
19:00 -2°C° 0 mm 2 mps 732 mmHg 69%
20:00 -2°C° 0 mm 2 mps 732 mmHg 70%
21:00 -2°C° 0 mm 2 mps 732 mmHg 71%
22:00 -3°C° 0 mm 2 mps 732 mmHg 72%
23:00 -3°C° 0 mm 2 mps 731 mmHg 73%

8 Marzo, Lunes

Tiempo Temperatura Precipitaciones Viento Presión Humedad
00:00 -3°C° 0 mm 2 mps 731 mmHg 73%
01:00 -1°C° 0 mm 1 mps 731 mmHg 74%
02:00 -3°C° 0 mm 2 mps 731 mmHg 76%
03:00 -3°C° 0 mm 2 mps 731 mmHg 78%
04:00 -3°C° 0 mm 2 mps 730 mmHg 80%
05:00 -4°C° 0 mm 3 mps 731 mmHg 82%
06:00 -4°C° 0 mm 3 mps 731 mmHg 84%
07:00 -4°C° 0 mm 3 mps 731 mmHg 86%
08:00 -3°C° 0.1 mm 4 mps 731 mmHg 85%
09:00 -2°C° 0.1 mm 4 mps 731 mmHg 84%
10:00 -1°C° 0.1 mm 4 mps 732 mmHg 83%
11:00 -1°C° 0.2 mm 4 mps 732 mmHg 83%
12:00 0°C° 0.2 mm 3 mps 732 mmHg 83%
13:00 +1°C° 0.2 mm 3 mps 732 mmHg 83%
14:00 0°C° 0.3 mm 3 mps 732 mmHg 82%
15:00 0°C° 0.3 mm 3 mps 732 mmHg 80%
16:00 -1°C° 0.3 mm 3 mps 732 mmHg 79%
17:00 -1°C° 0.1 mm 3 mps 733 mmHg 79%
18:00 -2°C° 0.1 mm 2 mps 733 mmHg 80%
19:00 -3°C° 0.1 mm 2 mps 734 mmHg 80%
20:00 -4°C° 0 mm 2 mps 734 mmHg 80%
21:00 -4°C° 0 mm 2 mps 735 mmHg 81%
22:00 -3°C° 0 mm 1 mps 735 mmHg 81%
23:00 -3°C° 0 mm 1 mps 735 mmHg 82%

9 Marzo, Martes

Tiempo Temperatura Precipitaciones Viento Presión Humedad
00:00 -3°C° 0 mm 1 mps 736 mmHg 83%
01:00 -3°C° 0 mm 1 mps 736 mmHg 84%
02:00 -3°C° 0 mm 1 mps 736 mmHg 85%
03:00 -3°C° 0 mm 1 mps 736 mmHg 86%
04:00 -3°C° 0 mm 1 mps 736 mmHg 88%
05:00 -3°C° 0 mm 1 mps 736 mmHg 87%
06:00 -3°C° 0 mm 1 mps 737 mmHg 87%
07:00 -3°C° 0 mm 1 mps 737 mmHg 86%
08:00 -2°C° 0 mm 1 mps 737 mmHg 79%
09:00 -1°C° 0 mm 1 mps 737 mmHg 71%
10:00 0°C° 0 mm 1 mps 737 mmHg 63%
11:00 +1°C° 0 mm 1 mps 737 mmHg 59%
12:00 +1°C° 0 mm 1 mps 737 mmHg 54%
13:00 +2°C° 0 mm 1 mps 737 mmHg 50%
14:00 +2°C° 0 mm 1 mps 737 mmHg 50%
15:00 +2°C° 0 mm 1 mps 737 mmHg 50%
16:00 +1°C° 0 mm 1 mps 736 mmHg 50%
17:00 0°C° 0 mm 1 mps 736 mmHg 55%
18:00 -1°C° 0 mm 1 mps 736 mmHg 60%
19:00 -2°C° 0 mm 1 mps 737 mmHg 64%
20:00 -2°C° 0 mm 1 mps 737 mmHg 65%
21:00 -4°C° 0 mm 2 mps 737 mmHg 65%
22:00 -4°C° 0 mm 2 mps 737 mmHg 65%
23:00 -4°C° 0 mm 2 mps 736 mmHg 66%
Mostrar más

Necesitamos Su Consentimiento

Meteoprog y nuestros Proveedores de Servicios pueden almacenar y acceder a sus datos personales como cookies, identificadores de dispositivo u otras tecnologías similares de su dispositivo y procesar dichos datos para personalizar contenido y anuncios, además de ofrecer funciones de redes sociales y analizar el tráfico.

  • Almacenar y/o acceder a información en su dispositivo

    Se puede almacenar o acceder a cookies, identificadores de dispositivo u otra información de su dispositivo para los fines anteriormente indicados.

  • Anuncios y contenido personalizados, medición de anuncios y contenido, percepciones del público, y desarrollo de productos

    Los anuncios y el contenido pueden personalizarse en base a su perfil. Se pueden añadir más datos para personalizar mejor los anuncios y contenidos. Se puede medir el rendimiento de los anuncios y contenidos. Se puede obtener la percepción sobre el público que ha visto los anuncios y contenidos. Dichos datos pueden usarse para desarrollar o mejorar la experiencia del usuario, sistemas y software.

Al hacer clic en ‘Estoy De Acuerdo’ usted permitirá el uso de las cookies, identificadores de dispositivo, balizas web u otras tecnologías similares indicadas. Su configuración puede cambiarse desde el navegador de su dispositivo.

Para ciertos fines, los intereses legítimos pueden ser considerados por encima del consentimiento. Puede leer más sobre ello en nuestra Política de Privacidad y Cookies.